When you browse on this site, cookies collect data to enhance your experience and personalize the content and advertising you see.
Visit our Privacy Policy to learn more. By continuing to use the site, you agree to this use of cookies and data.
  • In Österreich
  • Länderverzeichnis
  • Für 7 Tage
  • Wassertemperatur
  • Satellitenkarten
  • Wetterkarte
  • News
  • Widgets
  • user-avatar
    Anmelden

    Stündliche Wetter Faru

    Heute, 23 März, Samstag

    Zeit Temperatur Niederschläge Wind Luftdruck Luftfeuchtigkeit
    00:00 +11°C° 0 mm 4 m/S 765 mmHg 75%
    01:00 +11°C° 0 mm 4 m/S 765 mmHg 77%
    02:00 +10°C° 0 mm 5 m/S 764 mmHg 79%
    03:00 +9°C° 0 mm 5 m/S 764 mmHg 78%
    04:00 +9°C° 0 mm 6 m/S 764 mmHg 78%
    05:00 +9°C° 0 mm 6 m/S 764 mmHg 77%
    06:00 +11°C° 0 mm 7 m/S 764 mmHg 70%
    07:00 +13°C° 0 mm 8 m/S 764 mmHg 63%
    08:00 +16°C° 0 mm 9 m/S 764 mmHg 56%
    09:00 +17°C° 0 mm 9 m/S 764 mmHg 52%
    10:00 +19°C° 0 mm 9 m/S 764 mmHg 49%
    11:00 +21°C° 0 mm 9 m/S 763 mmHg 45%
    12:00 +21°C° 0 mm 8 m/S 763 mmHg 44%
    13:00 +22°C° 0 mm 7 m/S 762 mmHg 43%
    14:00 +22°C° 0 mm 6 m/S 762 mmHg 42%
    15:00 +21°C° 0 mm 6 m/S 761 mmHg 48%
    16:00 +20°C° 0 mm 6 m/S 761 mmHg 54%
    17:00 +19°C° 0 mm 6 m/S 761 mmHg 60%
    18:00 +17°C° 0 mm 6 m/S 762 mmHg 67%
    19:00 +15°C° 0 mm 5 m/S 762 mmHg 74%
    20:00 +14°C° 0 mm 5 m/S 763 mmHg 82%
    21:00 +13°C° 0 mm 5 m/S 762 mmHg 82%
    22:00 +13°C° 0 mm 5 m/S 762 mmHg 83%
    23:00 +12°C° 0 mm 5 m/S 762 mmHg 83%

    Morgen, 24 März, Sonntag

    Zeit Temperatur Niederschläge Wind Luftdruck Luftfeuchtigkeit
    00:00 +12°C° 0 mm 5 m/S 762 mmHg 82%
    01:00 +11°C° 0 mm 6 m/S 762 mmHg 81%
    02:00 +10°C° 0 mm 6 m/S 762 mmHg 79%
    03:00 +10°C° 0 mm 6 m/S 762 mmHg 79%
    04:00 +10°C° 0 mm 6 m/S 762 mmHg 78%
    05:00 +9°C° 0 mm 6 m/S 761 mmHg 78%
    06:00 +11°C° 0 mm 6 m/S 762 mmHg 71%
    07:00 +14°C° 0 mm 6 m/S 762 mmHg 63%
    08:00 +16°C° 0 mm 6 m/S 762 mmHg 56%
    09:00 +19°C° 0 mm 6 m/S 762 mmHg 51%
    10:00 +20°C° 0 mm 6 m/S 762 mmHg 47%
    11:00 +22°C° 0 mm 6 m/S 762 mmHg 43%
    12:00 +22°C° 0 mm 6 m/S 762 mmHg 43%
    13:00 +22°C° 0 mm 5 m/S 762 mmHg 42%
    14:00 +22°C° 0 mm 4 m/S 761 mmHg 42%
    15:00 +21°C° 0 mm 4 m/S 761 mmHg 48%
    16:00 +20°C° 0 mm 3 m/S 761 mmHg 53%
    17:00 +20°C° 0 mm 3 m/S 761 mmHg 59%
    18:00 +18°C° 0 mm 3 m/S 762 mmHg 67%
    19:00 +16°C° 0 mm 2 m/S 762 mmHg 76%
    20:00 +14°C° 0 mm 2 m/S 763 mmHg 84%
    21:00 +14°C° 0 mm 2 m/S 762 mmHg 85%
    22:00 +13°C° 0 mm 2 m/S 762 mmHg 87%
    23:00 +12°C° 0 mm 3 m/S 762 mmHg 88%

    übermorgen, 25 März, Montag

    Zeit Temperatur Niederschläge Wind Luftdruck Luftfeuchtigkeit
    00:00 +12°C° 0 mm 3 m/S 762 mmHg 89%
    01:00 +12°C° 0 mm 3 m/S 761 mmHg 90%
    02:00 +12°C° 0 mm 3 m/S 761 mmHg 92%
    03:00 +11°C° 0 mm 4 m/S 761 mmHg 92%
    04:00 +11°C° 0 mm 4 m/S 761 mmHg 91%
    05:00 +11°C° 0 mm 4 m/S 761 mmHg 91%
    06:00 +13°C° 0 mm 5 m/S 761 mmHg 81%
    07:00 +14°C° 0 mm 5 m/S 761 mmHg 70%
    08:00 +16°C° 0 mm 5 m/S 761 mmHg 60%
    09:00 +19°C° 0 mm 5 m/S 761 mmHg 55%
    10:00 +21°C° 0 mm 6 m/S 761 mmHg 50%
    11:00 +22°C° 0 mm 6 m/S 760 mmHg 45%
    12:00 +23°C° 0 mm 5 m/S 760 mmHg 44%
    13:00 +23°C° 0 mm 5 m/S 759 mmHg 42%
    14:00 +25°C° 0 mm 4 m/S 758 mmHg 41%
    15:00 +24°C° 0 mm 3 m/S 758 mmHg 45%
    16:00 +23°C° 0 mm 2 m/S 758 mmHg 50%
    17:00 +22°C° 0 mm 1 m/S 757 mmHg 55%
    18:00 +20°C° 0 mm 1 m/S 758 mmHg 60%
    19:00 +19°C° 0 mm 1 m/S 758 mmHg 64%
    20:00 +16°C° 0 mm 1 m/S 758 mmHg 68%
    21:00 +16°C° 0 mm 1 m/S 758 mmHg 71%
    22:00 +15°C° 0 mm 2 m/S 758 mmHg 74%
    23:00 +15°C° 0 mm 2 m/S 757 mmHg 76%

    26 März, Dienstag

    Zeit Temperatur Niederschläge Wind Luftdruck Luftfeuchtigkeit
    00:00 +14°C° 0 mm 3 m/S 757 mmHg 75%
    01:00 +14°C° 0 mm 3 m/S 757 mmHg 74%
    02:00 +14°C° 0 mm 3 m/S 757 mmHg 73%
    03:00 +14°C° 0 mm 4 m/S 756 mmHg 73%
    04:00 +13°C° 0 mm 5 m/S 756 mmHg 73%
    05:00 +13°C° 0 mm 6 m/S 756 mmHg 73%
    06:00 +15°C° 0 mm 6 m/S 756 mmHg 67%
    07:00 +16°C° 0 mm 6 m/S 756 mmHg 62%
    08:00 +18°C° 0 mm 7 m/S 756 mmHg 56%
    09:00 +21°C° 0 mm 7 m/S 756 mmHg 51%
    10:00 +22°C° 0 mm 7 m/S 755 mmHg 46%
    11:00 +24°C° 0 mm 6 m/S 755 mmHg 40%
    12:00 +26°C° 0 mm 7 m/S 755 mmHg 40%
    13:00 +26°C° 0 mm 7 m/S 754 mmHg 39%
    14:00 +27°C° 0 mm 8 m/S 753 mmHg 38%
    15:00 +26°C° 0 mm 7 m/S 753 mmHg 42%
    16:00 +23°C° 0 mm 7 m/S 753 mmHg 46%
    17:00 +22°C° 0 mm 7 m/S 753 mmHg 50%
    18:00 +21°C° 0 mm 7 m/S 754 mmHg 52%
    19:00 +20°C° 0 mm 8 m/S 754 mmHg 53%
    20:00 +18°C° 0 mm 8 m/S 755 mmHg 55%
    21:00 +18°C° 0 mm 8 m/S 755 mmHg 56%
    22:00 +18°C° 0 mm 8 m/S 755 mmHg 57%
    23:00 +17°C° 0 mm 8 m/S 755 mmHg 57%

    27 März, Mittwoch

    Zeit Temperatur Niederschläge Wind Luftdruck Luftfeuchtigkeit
    00:00 +17°C° 0 mm 10 m/S 756 mmHg 59%
    01:00 +17°C° 0 mm 11 m/S 756 mmHg 61%
    02:00 +15°C° 0 mm 12 m/S 756 mmHg 63%
    03:00 +15°C° 0.2 mm 12 m/S 756 mmHg 65%
    04:00 +15°C° 0.2 mm 12 m/S 756 mmHg 67%
    05:00 +15°C° 0.2 mm 12 m/S 757 mmHg 69%
    06:00 +15°C° 0.2 mm 12 m/S 757 mmHg 72%
    07:00 +14°C° 0.2 mm 11 m/S 758 mmHg 76%
    08:00 +14°C° 0.2 mm 11 m/S 758 mmHg 79%
    09:00 +16°C° 0.1 mm 11 m/S 758 mmHg 78%
    10:00 +16°C° 0.1 mm 10 m/S 759 mmHg 77%
    11:00 +16°C° 0.1 mm 10 m/S 759 mmHg 76%
    12:00 +16°C° 0.1 mm 10 m/S 759 mmHg 76%
    13:00 +17°C° 0.1 mm 11 m/S 759 mmHg 75%
    14:00 +17°C° 0.1 mm 11 m/S 758 mmHg 75%
    15:00 +17°C° 0.1 mm 10 m/S 758 mmHg 77%
    16:00 +16°C° 0.1 mm 10 m/S 759 mmHg 79%
    17:00 +16°C° 0.1 mm 9 m/S 759 mmHg 82%
    18:00 +16°C° 0 mm 9 m/S 759 mmHg 83%
    19:00 +16°C° 0 mm 8 m/S 760 mmHg 85%
    20:00 +15°C° 0 mm 8 m/S 760 mmHg 86%
    21:00 +15°C° 0 mm 8 m/S 760 mmHg 87%
    22:00 +15°C° 0 mm 8 m/S 760 mmHg 88%
    23:00 +15°C° 0 mm 8 m/S 760 mmHg 89%

    28 März, Donnerstag

    Zeit Temperatur Niederschläge Wind Luftdruck Luftfeuchtigkeit
    00:00 +15°C° 0.1 mm 8 m/S 760 mmHg 89%
    01:00 +15°C° 0.1 mm 8 m/S 760 mmHg 90%
    02:00 +15°C° 0.1 mm 8 m/S 760 mmHg 90%
    03:00 +15°C° 0.2 mm 8 m/S 761 mmHg 91%
    04:00 +15°C° 0.2 mm 8 m/S 761 mmHg 92%
    05:00 +15°C° 0.2 mm 8 m/S 761 mmHg 92%
    06:00 +15°C° 0.6 mm 8 m/S 761 mmHg 92%
    07:00 +15°C° 0.6 mm 8 m/S 762 mmHg 92%
    08:00 +15°C° 0.6 mm 8 m/S 762 mmHg 92%
    09:00 +15°C° 0.4 mm 8 m/S 762 mmHg 91%
    10:00 +16°C° 0.4 mm 7 m/S 763 mmHg 89%
    11:00 +16°C° 0.4 mm 7 m/S 763 mmHg 88%
    12:00 +17°C° 0.1 mm 7 m/S 763 mmHg 84%
    13:00 +19°C° 0.1 mm 6 m/S 762 mmHg 80%
    14:00 +20°C° 0.1 mm 6 m/S 762 mmHg 77%
    15:00 +19°C° 0 mm 5 m/S 762 mmHg 78%
    16:00 +19°C° 0 mm 4 m/S 763 mmHg 80%
    17:00 +18°C° 0 mm 4 m/S 763 mmHg 82%
    18:00 +17°C° 0 mm 4 m/S 763 mmHg 87%
    19:00 +15°C° 0 mm 4 m/S 764 mmHg 92%
    20:00 +14°C° 0 mm 4 m/S 764 mmHg 96%
    21:00 +14°C° 0 mm 4 m/S 764 mmHg 96%
    22:00 +14°C° 0 mm 5 m/S 764 mmHg 96%
    23:00 +14°C° 0 mm 6 m/S 764 mmHg 96%
    Mehr zeigen